GW5214 Weather Reports


time (UTC)temp
C
wind
direction
speed
KPH
gust
KPH
rain 1hr
cm
rain 24hr
cm
rain mn
cm
humidity
%
barometer
mb
20260502163027 16 188 0.0 4.8 0.00 0.00 0.00 37 1016.0
20260502161559 16 190 0.0 6.4 0.00 0.00 0.00 39 1016.1
20260502151600 14 90 3.2 8.0 0.00 0.00 0.00 33 1016.3
20260502123010 8 342 0.0 3.2 0.00 0.00 0.00 37 1015.6
20260502121543 8 5 3.2 4.8 0.00 0.00 0.00 35 1015.6
20260502114540 8 15 1.6 6.4 0.00 0.00 0.00 38 1015.5
20260502113013 8 19 1.6 4.8 0.00 0.00 0.00 38 1015.6
20260502111538 8 9 0.0 6.4 0.00 0.00 0.00 39 1015.7
20260502110007 8 9 1.6 4.8 0.00 0.00 0.00 41 1015.7
20260502104543 8 346 1.6 4.8 0.00 0.00 0.00 42 1015.6
20260502103005 7 355 1.6 4.8 0.00 0.00 0.00 46 1015.7
20260502101553 8 335 1.6 3.2 0.00 0.00 0.00 46 1015.7
20260502080106 12 22 1.6 4.8 0.00 0.00 0.00 26 1015.5
20260502071522 11 320 0.0 6.4 0.00 0.00 0.00 35 1015.4
20260502070054 10 14 3.2 4.8 0.00 0.00 0.00 38 1015.6
20260502064529 10 339 0.0 3.2 0.00 0.00 0.00 38 1015.6
20260502063057 10 346 1.6 3.2 0.00 0.00 0.00 39 1015.5
20260502061519 10 17 1.6 4.8 0.00 0.00 0.00 39 1015.4
20260502054519 11 312 0.0 4.8 0.00 0.00 0.00 38 1015.2
20260502053059 11 360 1.6 4.8 0.00 0.00 0.00 40 1015.2
20260502051515 11 10 0.0 4.8 0.00 0.00 0.00 41 1015.1
20260502050049 11 323 0.0 3.2 0.00 0.00 0.00 42 1015.2
20260502044513 11 326 0.0 4.8 0.00 0.00 0.00 40 1015.0
20260502043043 11 342 0.0 3.2 0.00 0.00 0.00 41 1015.0
20260502041511 11 322 0.0 4.8 0.00 0.00 0.00 40 1014.9
20260502040044 12 351 0.0 3.2 0.00 0.00 0.00 39 1014.9
20260502034511 12 351 1.6 6.4 0.00 0.00 0.00 37 1014.8
20260502033039 13 325 0.0 4.8 0.00 0.00 0.00 34 1014.5
20260502031505 13 323 1.6 4.8 0.00 0.00 0.00 34 1014.3
20260502030035 13 34 0.0 6.4 0.00 0.00 0.00 33 1014.1
20260502024504 13 34 1.6 4.8 0.00 0.00 0.00 36 1013.9
20260502023034 14 46 0.0 3.2 0.00 0.00 0.00 36 1013.8
20260502021502 15 27 0.0 3.2 0.00 0.00 0.00 33 1013.7
20260502020033 15 258 0.0 1.6 0.00 0.00 0.00 33 1013.7
20260502014604 16 348 0.0 8.0 0.00 0.00 0.00 30 1013.5
20260502013031 16 294 3.2 12.9 0.00 0.00 0.00 29 1013.5
20260502011611 16 304 1.6 9.7 0.00 0.00 0.00 28 1013.4
20260502010028 17 280 3.2 14.5 0.00 0.00 0.00 27 1013.5
20260502004606 17 299 6.4 12.9 0.00 0.00 0.00 25 1013.4
20260502003027 17 262 3.2 12.9 0.00 0.00 0.00 26 1013.5
20260502001556 18 11 4.8 16.1 0.00 0.00 0.00 26 1013.5
20260502000025 18 301 3.2 17.7 0.00 0.00 0.00 27 1013.5
20260501234556 17 269 1.6 16.1 0.00 0.00 0.00 26 1013.5
20260501233024 18 339 4.8 11.3 0.00 0.00 0.00 28 1013.7
20260501231602 17 296 8.0 12.9 0.00 0.00 0.00 25 1013.7
20260501230022 17 261 4.8 16.1 0.00 0.00 0.00 27 1013.8
20260501224557 18 343 6.4 16.1 0.00 0.00 0.00 26 1013.9
20260501223016 17 27 4.8 19.3 0.00 0.00 0.00 26 1014.0
20260501221606 17 292 4.8 22.5 0.00 0.00 0.00 29 1014.3
20260501220006 18 331 4.8 14.5 0.00 0.00 0.00 29 1014.4
20260501214537 18 321 4.8 12.9 0.00 0.00 0.00 28 1014.6
20260501213002 17 194 4.8 11.3 0.00 0.00 0.00 31 1014.8
20260501211534 17 248 6.4 14.5 0.00 0.00 0.00 30 1015.0
20260501210002 17 221 3.2 11.3 0.00 0.00 0.00 33 1015.1
20260501204533 17 16 6.4 16.1 0.00 0.00 0.00 32 1015.2
20260501203001 17 203 4.8 17.7 0.00 0.00 0.00 32 1015.2
20260501201531 17 259 4.8 17.7 0.00 0.00 0.00 29 1015.3
20260501194530 17 245 8.0 14.5 0.00 0.00 0.00 30 1015.4
20260501193101 17 335 3.2 9.7 0.00 0.00 0.00 28 1015.6
20260501191533 16 259 4.8 14.5 0.00 0.00 0.00 29 1015.8
20260501190116 16 284 3.2 9.7 0.00 0.00 0.00 29 1016.0
20260501184535 16 252 3.2 14.5 0.00 0.00 0.00 34 1016.2
20260501183101 16 195 1.6 8.0 0.00 0.00 0.00 24 1016.4
20260501181526 15 134 1.6 9.7 0.00 0.00 0.00 29 1016.5